Weather History for New Haven, CT

Change the Weather History Date:

Tuesday, October 23, 2012

  Actual Average Record
Temperature  
Mean Temperature 56 °F -  
Max Temperature 66 °F 57 °F 83 °F (1979)
Min Temperature 46 °F 42 °F 30 °F (1969)
Degree Days  
Heating Degree Days 9    
Growing Degree Days 6 (Base 50)    
Moisture  
Dew Point 47 °F    
Average Humidity 73    
Maximum Humidity 90    
Minimum Humidity 40    
Precipitation  
Precipitation 0.08 in - - ()
Sea Level Pressure  
Sea Level Pressure 30.09 in    
Wind  
Wind Speed 1 mph (NW)    
Max Wind Speed 7 mph    
Max Gust Speed -    
Visibility 10 miles    
Events Rain    
Averages and records for this station are not official NWS values.
T = Trace of Precipitation, MM = Missing Value Source: NWS Daily Summary

Daily Weather History Graph

Daily Weather History Graph

Search for Another Location

Airport:

Trip Planner

Search our weather history database for the weather conditions in past years. The results will help you decide how hot, cold, wet, or windy it might be!

Date:

Astronomy

Oct. 23, 2012 Rise Set
Actual Time 7:12 AM EDT 5:58 PM EDT
Civil Twilight 6:44 AM EDT 6:26 PM EDT
Nautical Twilight 6:12 AM EDT 6:58 PM EDT
Astronomical Twilight 5:40 AM EDT 7:30 PM EDT
Moon 2:43 PM EDT (10/23) 12:58 AM EDT (10/23)
Length of Visible Light 11h 41m
Length of Day
10h 45m
Waxing Gibbous, 66% of the Moon is Illuminated
Oct 23
Waxing Gibbous
Oct 29
Full
Nov 6
Last Quarter
Nov 13
New
Nov 20
First Quarter

Hourly Weather History & Observations

Time (EDT) Temp. Dew Point Humidity Pressure Visibility Wind Dir Wind Speed Gust Speed Precip Events Conditions
12:53 AM 48.0 °F 44.1 °F 86% 30.06 in 10.0 mi Calm Calm - N/A   Clear
1:53 AM 48.2 °F 44.6 °F 87% 30.07 in 10.0 mi Calm Calm - N/A   Clear
2:53 AM 48.0 °F 44.1 °F 86% 30.06 in 10.0 mi Calm Calm - N/A   Clear
3:53 AM 46.0 °F 42.1 °F 86% 30.06 in 10.0 mi Calm Calm - N/A   Clear
4:53 AM 53.1 °F 43.0 °F 69% 30.06 in 10.0 mi NW 4.6 mph - N/A   Clear
5:53 AM 48.0 °F 42.1 °F 80% 30.09 in 10.0 mi Calm Calm - N/A   Clear
6:53 AM 46.0 °F 42.1 °F 86% 30.10 in 10.0 mi Calm Calm - N/A   Mostly Cloudy
8:53 AM 55.9 °F 45.0 °F 67% 30.13 in 10.0 mi Calm Calm - N/A   Clear
9:53 AM 61.0 °F 42.1 °F 50% 30.12 in 10.0 mi Calm Calm - N/A   Scattered Clouds
10:53 AM 64.9 °F 41.0 °F 42% 30.11 in 10.0 mi Variable 6.9 mph - N/A   Mostly Cloudy
11:53 AM 66.0 °F 41.0 °F 40% 30.10 in 10.0 mi Variable 3.5 mph - N/A   Overcast
12:53 PM 64.0 °F 46.0 °F 52% 30.09 in 10.0 mi Calm Calm - N/A   Mostly Cloudy
1:53 PM 63.0 °F 48.9 °F 60% 30.09 in 10.0 mi WSW 4.6 mph - N/A   Overcast
2:53 PM 62.1 °F 50.0 °F 65% 30.07 in 10.0 mi Calm Calm - N/A   Overcast
3:53 PM 60.8 °F 48.2 °F 63% 30.07 in 10.0 mi NW 3.5 mph - N/A   Overcast
4:53 PM 60.1 °F 51.1 °F 72% 30.07 in 10.0 mi Calm Calm - 0.00 in   Mostly Cloudy
5:53 PM 57.9 °F 51.1 °F 78% 30.09 in 10.0 mi Calm Calm - 0.00 in   Mostly Cloudy
6:53 PM 57.9 °F 51.1 °F 78% 30.08 in 10.0 mi Calm Calm - N/A   Overcast
7:53 PM 57.0 °F 52.0 °F 83% 30.09 in 10.0 mi Calm Calm - 0.00 in   Mostly Cloudy
8:53 PM 55.9 °F 53.1 °F 90% 30.10 in 10.0 mi Calm Calm - 0.02 in Rain Light Rain
9:53 PM 55.9 °F 53.1 °F 90% 30.11 in 10.0 mi Calm Calm - 0.02 in Rain Light Rain
10:53 PM 55.9 °F 53.1 °F 90% 30.12 in 9.0 mi Calm Calm - 0.03 in Rain Light Rain
11:53 PM 55.9 °F 53.1 °F 90% 30.11 in 7.0 mi NE 4.6 mph - 0.01 in Rain Light Rain